| time (UTC) | temp C | wind direction | speed KPH | gust KPH | rain 1hr cm | rain 24hr cm | rain mn cm | humidity % | barometer mb |
| 20260510193122 | 32 | 105 | 14.5 | 22.5 | 0.00 | 0.00 | 0.00 | 16 | 1015.7 |
| 20260510192624 | 32 | 100 | 11.3 | 17.7 | 0.00 | 0.00 | 0.00 | 17 | 1015.8 |
| 20260510192128 | 31 | 122 | 9.7 | 32.2 | 0.00 | 0.00 | 0.00 | 19 | 1015.8 |
| 20260510191630 | 31 | 113 | 14.5 | 32.2 | 0.00 | 0.00 | 0.00 | 19 | 1015.8 |
| 20260510191133 | 31 | 131 | 11.3 | 29.0 | 0.00 | 0.00 | 0.00 | 18 | 1015.9 |
| 20260510190637 | 31 | 105 | 17.7 | 29.0 | 0.00 | 0.00 | 0.00 | 17 | 1015.9 |
| 20260510190139 | 31 | 139 | 8.0 | 22.5 | 0.00 | 0.00 | 0.00 | 17 | 1016.0 |
| 20260510185146 | 30 | 209 | 8.0 | 30.6 | 0.00 | 0.00 | 0.00 | 16 | 1015.9 |
| 20260510184649 | 31 | 148 | 19.3 | 30.6 | 0.00 | 0.00 | 0.00 | 18 | 1016.0 |
| 20260510184151 | 31 | 163 | 17.7 | 29.0 | 0.00 | 0.00 | 0.00 | 18 | 1016.0 |
| 20260510183157 | 31 | 162 | 12.9 | 27.4 | 0.00 | 0.00 | 0.00 | 18 | 1016.0 |
| 20260510182701 | 31 | 152 | 14.5 | 37.0 | 0.00 | 0.00 | 0.00 | 18 | 1016.0 |
| 20260510182203 | 31 | 53 | 6.4 | 37.0 | 0.00 | 0.00 | 0.00 | 17 | 1016.0 |
| 20260510181707 | 30 | 162 | 11.3 | 25.7 | 0.00 | 0.00 | 0.00 | 17 | 1016.0 |
| 20260510181209 | 30 | 115 | 14.5 | 29.0 | 0.00 | 0.00 | 0.00 | 20 | 1016.1 |
| 20260510180712 | 30 | 152 | 11.3 | 29.0 | 0.00 | 0.00 | 0.00 | 19 | 1016.1 |
| 20260510180215 | 30 | 152 | 17.7 | 24.1 | 0.00 | 0.00 | 0.00 | 18 | 1016.1 |
| 20260510175719 | 30 | 161 | 14.5 | 24.1 | 0.00 | 0.00 | 0.00 | 17 | 1016.1 |
| 20260510175222 | 30 | 157 | 14.5 | 27.4 | 0.00 | 0.00 | 0.00 | 18 | 1016.1 |
| 20260510174725 | 31 | 154 | 16.1 | 27.4 | 0.00 | 0.00 | 0.00 | 18 | 1016.1 |
| 20260510174228 | 31 | 155 | 14.5 | 25.7 | 0.00 | 0.00 | 0.00 | 18 | 1015.2 |
| 20260510173731 | 31 | 128 | 11.3 | 25.7 | 0.00 | 0.00 | 0.00 | 18 | 1015.1 |
| 20260510173233 | 31 | 89 | 12.9 | 20.9 | 0.00 | 0.00 | 0.00 | 18 | 1015.1 |
| 20260510172736 | 30 | 66 | 11.3 | 20.9 | 0.00 | 0.00 | 0.00 | 17 | 1015.1 |
| 20260510172239 | 30 | 67 | 14.5 | 20.9 | 0.00 | 0.00 | 0.00 | 17 | 1015.1 |
| 20260510171742 | 30 | 69 | 9.7 | 20.9 | 0.00 | 0.00 | 0.00 | 17 | 1015.2 |
| 20260510171246 | 30 | 84 | 11.3 | 19.3 | 0.00 | 0.00 | 0.00 | 17 | 1015.0 |
| 20260510170748 | 30 | 88 | 9.7 | 19.3 | 0.00 | 0.00 | 0.00 | 16 | 1015.0 |
| 20260510170251 | 30 | 54 | 8.0 | 19.3 | 0.00 | 0.00 | 0.00 | 17 | 1014.9 |
| 20260510165257 | 30 | 105 | 11.3 | 22.5 | 0.00 | 0.00 | 0.00 | 16 | 1015.0 |
| 20260510164801 | 30 | 92 | 11.3 | 22.5 | 0.00 | 0.00 | 0.00 | 17 | 1015.0 |
| 20260510164304 | 30 | 95 | 9.7 | 14.5 | 0.00 | 0.00 | 0.00 | 18 | 1014.9 |
| 20260510163807 | 30 | 76 | 8.0 | 12.9 | 0.00 | 0.00 | 0.00 | 18 | 1015.0 |
| 20260510163310 | 29 | 83 | 6.4 | 11.3 | 0.00 | 0.00 | 0.00 | 20 | 1015.1 |
| 20260510161819 | 28 | 87 | 6.4 | 11.3 | 0.00 | 0.00 | 0.00 | 18 | 1014.9 |
| 20260510161322 | 28 | 64 | 6.4 | 11.3 | 0.00 | 0.00 | 0.00 | 18 | 1014.9 |
| 20260510160825 | 28 | 61 | 4.8 | 11.3 | 0.00 | 0.00 | 0.00 | 19 | 1014.8 |
| 20260510155831 | 28 | 63 | 4.8 | 12.9 | 0.00 | 0.00 | 0.00 | 20 | 1014.8 |
| 20260510154837 | 28 | 140 | 3.2 | 8.0 | 0.00 | 0.00 | 0.00 | 20 | 1014.7 |
| 20260510154340 | 28 | 0 | 0.0 | 6.4 | 0.00 | 0.00 | 0.00 | 18 | 1014.7 |
| 20260510153346 | 27 | 65 | 3.2 | 6.4 | 0.00 | 0.00 | 0.00 | 19 | 1014.8 |
| 20260510145410 | 23 | 0 | 0.0 | 3.2 | 0.00 | 0.00 | 0.00 | 24 | 1014.0 |
| 20260510144913 | 22 | 0 | 0.0 | 3.2 | 0.00 | 0.00 | 0.00 | 23 | 1014.1 |
| 20260510144416 | 22 | 0 | 0.0 | 3.2 | 0.00 | 0.00 | 0.00 | 21 | 1014.1 |
| 20260510143919 | 22 | 0 | 0.0 | 1.6 | 0.00 | 0.00 | 0.00 | 24 | 1014.0 |
| 20260510143422 | 21 | 0 | 0.0 | 6.4 | 0.00 | 0.00 | 0.00 | 23 | 1014.0 |
| 20260510142428 | 21 | 350 | 4.8 | 6.4 | 0.00 | 0.00 | 0.00 | 20 | 1013.8 |
| 20260510135446 | 20 | 312 | 1.6 | 4.8 | 0.00 | 0.00 | 0.00 | 16 | 1013.7 |
| 20260510133955 | 20 | 0 | 0.0 | 3.2 | 0.00 | 0.00 | 0.00 | 12 | 1013.4 |
| 20260510130516 | 19 | 0 | 0.0 | 4.8 | 0.00 | 0.00 | 0.00 | 11 | 1013.0 |
| 20260510125025 | 18 | 299 | 1.6 | 4.8 | 0.00 | 0.00 | 0.00 | 11 | 1013.1 |
| 20260510124528 | 18 | 299 | 1.6 | 4.8 | 0.00 | 0.00 | 0.00 | 11 | 1013.1 |
| 20260510123534 | 18 | 299 | 1.6 | 4.8 | 0.00 | 0.00 | 0.00 | 11 | 1013.0 |
| 20260510122540 | 18 | 294 | 1.6 | 8.0 | 0.00 | 0.00 | 0.00 | 11 | 1013.1 |
| 20260510121546 | 18 | 291 | 4.8 | 9.7 | 0.00 | 0.00 | 0.00 | 12 | 1013.2 |
| 20260510121049 | 18 | 291 | 6.4 | 9.7 | 0.00 | 0.00 | 0.00 | 11 | 1013.1 |
| 20260510120552 | 19 | 286 | 6.4 | 11.3 | 0.00 | 0.00 | 0.00 | 11 | 1013.1 |
| 20260510120056 | 19 | 276 | 6.4 | 11.3 | 0.00 | 0.00 | 0.00 | 12 | 1013.1 |
| 20260510115138 | 19 | 282 | 6.4 | 12.9 | 0.00 | 0.00 | 0.00 | 11 | 1013.0 |
| 20260510115102 | 19 | 282 | 6.4 | 12.9 | 0.00 | 0.00 | 0.00 | 11 | 1013.0 |
| 20260510114604 | 18 | 277 | 9.7 | 12.9 | 0.00 | 0.00 | 0.00 | 12 | 1013.0 |
| 20260510114107 | 18 | 288 | 6.4 | 11.3 | 0.00 | 0.00 | 0.00 | 11 | 1013.0 |
| 20260510113113 | 18 | 277 | 8.0 | 12.9 | 0.00 | 0.00 | 0.00 | 12 | 1013.0 |
| 20260510112119 | 18 | 273 | 8.0 | 12.9 | 0.00 | 0.00 | 0.00 | 12 | 1013.1 |
| 20260510105635 | 18 | 252 | 8.0 | 14.5 | 0.00 | 0.00 | 0.00 | 13 | 1013.1 |
| 20260510104641 | 18 | 257 | 8.0 | 14.5 | 0.00 | 0.00 | 0.00 | 14 | 1013.1 |
| 20260510104143 | 18 | 256 | 8.0 | 14.5 | 0.00 | 0.00 | 0.00 | 14 | 1013.1 |
| 20260510102652 | 17 | 258 | 9.7 | 12.9 | 0.00 | 0.00 | 0.00 | 14 | 1013.1 |
| 20260510101201 | 17 | 251 | 9.7 | 22.5 | 0.00 | 0.00 | 0.00 | 16 | 1013.3 |
| 20260510100743 | 16 | 241 | 14.5 | 22.5 | 0.00 | 0.00 | 0.00 | 17 | 1013.3 |
| 20260510100704 | 16 | 241 | 14.5 | 22.5 | 0.00 | 0.00 | 0.00 | 17 | 1013.3 |
| 20260510100207 | 16 | 248 | 9.7 | 19.3 | 0.00 | 0.00 | 0.00 | 17 | 1013.2 |
| 20260510095710 | 16 | 250 | 9.7 | 20.9 | 0.00 | 0.00 | 0.00 | 17 | 1013.3 |
| 20260510095213 | 16 | 247 | 12.9 | 20.9 | 0.00 | 0.00 | 0.00 | 18 | 1013.3 |
| 20260510094219 | 16 | 254 | 8.0 | 16.1 | 0.00 | 0.00 | 0.00 | 18 | 1013.2 |
| 20260510093722 | 16 | 257 | 8.0 | 16.1 | 0.00 | 0.00 | 0.00 | 17 | 1013.3 |
| 20260510092728 | 16 | 276 | 6.4 | 12.9 | 0.00 | 0.00 | 0.00 | 17 | 1013.3 |
| 20260510090741 | 16 | 289 | 6.4 | 14.5 | 0.00 | 0.00 | 0.00 | 18 | 1013.2 |
| 20260510085746 | 16 | 261 | 4.8 | 16.1 | 0.00 | 0.00 | 0.00 | 18 | 1013.3 |
| 20260510084752 | 16 | 258 | 9.7 | 17.7 | 0.00 | 0.00 | 0.00 | 19 | 1013.3 |
| 20260510083852 | 16 | 257 | 9.7 | 22.5 | 0.00 | 0.00 | 0.00 | 19 | 1013.4 |
| 20260510083758 | 16 | 257 | 9.7 | 22.5 | 0.00 | 0.00 | 0.00 | 19 | 1013.4 |
| 20260510083301 | 16 | 256 | 11.3 | 22.5 | 0.00 | 0.00 | 0.00 | 19 | 1013.4 |
| 20260510082422 | 16 | 253 | 12.9 | 20.9 | 0.00 | 0.00 | 0.00 | 20 | 1013.3 |
| 20260510082307 | 16 | 253 | 12.9 | 20.9 | 0.00 | 0.00 | 0.00 | 20 | 1013.3 |
| 20260510081846 | 16 | 249 | 14.5 | 20.9 | 0.00 | 0.00 | 0.00 | 20 | 1013.5 |
| 20260510081810 | 16 | 249 | 14.5 | 20.9 | 0.00 | 0.00 | 0.00 | 20 | 1013.5 |
| 20260510080816 | 16 | 257 | 8.0 | 22.5 | 0.00 | 0.00 | 0.00 | 20 | 1013.5 |
| 20260510080319 | 16 | 254 | 11.3 | 22.5 | 0.00 | 0.00 | 0.00 | 20 | 1013.5 |
| 20260510075822 | 16 | 246 | 16.1 | 22.5 | 0.00 | 0.00 | 0.00 | 20 | 1013.5 |
| 20260510075325 | 17 | 250 | 14.5 | 22.5 | 0.00 | 0.00 | 0.00 | 19 | 1013.5 |
| 20260510074331 | 17 | 254 | 11.3 | 20.9 | 0.00 | 0.00 | 0.00 | 17 | 1013.6 |
| 20260510073337 | 17 | 243 | 16.1 | 22.5 | 0.00 | 0.00 | 0.00 | 19 | 1013.5 |
| 20260510071846 | 17 | 243 | 16.1 | 29.0 | 0.00 | 0.00 | 0.00 | 20 | 1013.6 |
| 20260510070852 | 17 | 249 | 17.7 | 25.7 | 0.00 | 0.00 | 0.00 | 17 | 1013.6 |
| 20260510070355 | 17 | 250 | 19.3 | 27.4 | 0.00 | 0.00 | 0.00 | 17 | 1013.7 |
| 20260510065858 | 17 | 244 | 19.3 | 29.0 | 0.00 | 0.00 | 0.00 | 21 | 1013.6 |
| 20260510064904 | 17 | 242 | 20.9 | 27.4 | 0.00 | 0.00 | 0.00 | 23 | 1013.6 |
| 20260510064407 | 17 | 240 | 20.9 | 27.4 | 0.00 | 0.00 | 0.00 | 21 | 1013.6 |
| 20260510063502 | 18 | 242 | 24.1 | 30.6 | 0.00 | 0.00 | 0.00 | 20 | 1013.6 |
| 20260510063413 | 18 | 242 | 24.1 | 30.6 | 0.00 | 0.00 | 0.00 | 20 | 1013.6 |
| 20260510062916 | 18 | 241 | 22.5 | 30.6 | 0.00 | 0.00 | 0.00 | 19 | 1013.6 |
| 20260510061425 | 18 | 240 | 20.9 | 30.6 | 0.00 | 0.00 | 0.00 | 18 | 1013.6 |
| 20260510060928 | 18 | 240 | 19.3 | 30.6 | 0.00 | 0.00 | 0.00 | 17 | 1013.5 |
| 20260510060025 | 17 | 241 | 22.5 | 32.2 | 0.00 | 0.00 | 0.00 | 21 | 1013.5 |
| 20260510055934 | 17 | 241 | 22.5 | 32.2 | 0.00 | 0.00 | 0.00 | 21 | 1013.5 |
| 20260510054443 | 17 | 241 | 25.7 | 33.8 | 0.00 | 0.00 | 0.00 | 31 | 1013.3 |
| 20260510051958 | 17 | 242 | 22.5 | 29.0 | 0.00 | 0.00 | 0.00 | 29 | 1013.5 |
| 20260510051501 | 17 | 243 | 19.3 | 29.0 | 0.00 | 0.00 | 0.00 | 27 | 1013.5 |
| 20260510050507 | 17 | 242 | 20.9 | 30.6 | 0.00 | 0.00 | 0.00 | 33 | 1013.5 |
| 20260510045513 | 18 | 242 | 22.5 | 30.6 | 0.00 | 0.00 | 0.00 | 33 | 1013.5 |
| 20260510045016 | 18 | 244 | 19.3 | 30.6 | 0.00 | 0.00 | 0.00 | 28 | 1013.5 |
| 20260510043525 | 18 | 247 | 19.3 | 29.0 | 0.00 | 0.00 | 0.00 | 27 | 1013.3 |
| 20260510043028 | 17 | 244 | 20.9 | 29.0 | 0.00 | 0.00 | 0.00 | 32 | 1013.4 |
| 20260510042531 | 17 | 243 | 19.3 | 30.6 | 0.00 | 0.00 | 0.00 | 34 | 1013.3 |
| 20260510041538 | 17 | 242 | 22.5 | 29.0 | 0.00 | 0.00 | 0.00 | 36 | 1013.3 |
| 20260510040046 | 17 | 240 | 20.9 | 27.4 | 0.00 | 0.00 | 0.00 | 43 | 1014.0 |
| 20260510035549 | 17 | 240 | 20.9 | 30.6 | 0.00 | 0.00 | 0.00 | 44 | 1013.9 |
| 20260510035053 | 17 | 240 | 22.5 | 30.6 | 0.00 | 0.00 | 0.00 | 45 | 1013.8 |
| 20260510034555 | 17 | 240 | 24.1 | 30.6 | 0.00 | 0.00 | 0.00 | 44 | 1013.8 |
| 20260510033105 | 16 | 247 | 19.3 | 24.1 | 0.00 | 0.00 | 0.00 | 48 | 1013.6 |
| 20260510032607 | 16 | 252 | 16.1 | 20.9 | 0.00 | 0.00 | 0.00 | 50 | 1013.5 |
| 20260510032111 | 16 | 250 | 14.5 | 24.1 | 0.00 | 0.00 | 0.00 | 53 | 1013.5 |
| 20260510024632 | 16 | 251 | 19.3 | 29.0 | 0.00 | 0.00 | 0.00 | 69 | 1013.0 |
| 20260510023141 | 16 | 254 | 22.5 | 30.6 | 0.00 | 0.00 | 0.00 | 71 | 1012.9 |
| 20260510022643 | 16 | 257 | 22.5 | 30.6 | 0.00 | 0.00 | 0.00 | 70 | 1012.9 |
| 20260510021650 | 17 | 254 | 20.9 | 30.6 | 0.00 | 0.00 | 0.00 | 68 | 1012.8 |
| 20260510021153 | 17 | 259 | 22.5 | 30.6 | 0.00 | 0.00 | 0.00 | 67 | 1012.8 |
| 20260510020656 | 17 | 255 | 24.1 | 30.6 | 0.00 | 0.00 | 0.00 | 67 | 1012.9 |
| 20260510014707 | 18 | 265 | 24.1 | 32.2 | 0.00 | 0.00 | 0.00 | 64 | 1012.9 |
| 20260510013714 | 19 | 251 | 20.9 | 32.2 | 0.00 | 0.00 | 0.00 | 63 | 1012.9 |
| 20260510013217 | 20 | 254 | 22.5 | 30.6 | 0.00 | 0.00 | 0.00 | 62 | 1012.8 |
| 20260510012720 | 20 | 257 | 19.3 | 30.6 | 0.00 | 0.00 | 0.00 | 61 | 1012.9 |
| 20260510012223 | 20 | 265 | 22.5 | 33.8 | 0.00 | 0.00 | 0.00 | 60 | 1012.9 |
| 20260510010732 | 21 | 262 | 17.7 | 32.2 | 0.00 | 0.00 | 0.00 | 59 | 1013.0 |
| 20260510002756 | 22 | 269 | 22.5 | 30.6 | 0.00 | 0.00 | 0.00 | 56 | 1012.8 |
| 20260510002259 | 22 | 263 | 20.9 | 35.4 | 0.00 | 0.00 | 0.00 | 56 | 1012.9 |
| 20260510001305 | 22 | 260 | 22.5 | 35.4 | 0.00 | 0.00 | 0.00 | 54 | 1012.8 |
| 20260510000808 | 22 | 269 | 25.7 | 35.4 | 0.00 | 0.00 | 0.00 | 53 | 1012.8 |
| 20260509235814 | 23 | 274 | 17.7 | 30.6 | 0.00 | 0.00 | 0.00 | 52 | 1012.8 |
| 20260509234820 | 23 | 256 | 22.5 | 32.2 | 0.00 | 0.00 | 0.00 | 51 | 1012.9 |
| 20260509233329 | 23 | 275 | 25.7 | 37.0 | 0.00 | 0.00 | 0.00 | 49 | 1012.9 |
| 20260509232832 | 23 | 265 | 22.5 | 32.2 | 0.00 | 0.00 | 0.00 | 51 | 1012.9 |
| 20260509232335 | 23 | 270 | 20.9 | 35.4 | 0.00 | 0.00 | 0.00 | 51 | 1013.0 |
| 20260509231838 | 23 | 276 | 19.3 | 35.4 | 0.00 | 0.00 | 0.00 | 49 | 1013.0 |
| 20260509231341 | 24 | 271 | 20.9 | 33.8 | 0.00 | 0.00 | 0.00 | 51 | 1013.0 |
| 20260509225850 | 24 | 275 | 24.1 | 32.2 | 0.00 | 0.00 | 0.00 | 48 | 1013.2 |
| 20260509222908 | 25 | 279 | 17.7 | 0.0 | 0.00 | 0.00 | 0.00 | 47 | 1013.4 |
| 20260509221914 | 25 | 272 | 22.5 | 33.8 | 0.00 | 0.00 | 0.00 | 44 | 1013.4 |
| 20260509221417 | 25 | 253 | 16.1 | 33.8 | 0.00 | 0.00 | 0.00 | 41 | 1013.5 |
| 20260509214932 | 25 | 262 | 20.9 | 30.6 | 0.00 | 0.00 | 0.00 | 39 | 1014.0 |
| 20260509214435 | 25 | 264 | 16.1 | 33.8 | 0.00 | 0.00 | 0.00 | 40 | 1013.9 |
| 20260509211453 | 25 | 245 | 20.9 | 33.8 | 0.00 | 0.00 | 0.00 | 32 | 1014.3 |
| 20260509205008 | 25 | 273 | 20.9 | 32.2 | 0.00 | 0.00 | 0.00 | 34 | 1014.5 |
| 20260509204014 | 25 | 241 | 20.9 | 32.2 | 0.00 | 0.00 | 0.00 | 33 | 1014.5 |
| 20260509203517 | 25 | 270 | 17.7 | 30.6 | 0.00 | 0.00 | 0.00 | 36 | 1014.5 |
| 20260509195541 | 25 | 252 | 16.1 | 30.6 | 0.00 | 0.00 | 0.00 | 35 | 1014.9 |
| 20260509195044 | 25 | 238 | 17.7 | 30.6 | 0.00 | 0.00 | 0.00 | 33 | 1015.0 |